FW4175 Weather Reports


Display with metric or nautical units.
time (UTC)temp
F
wind
direction
speed
MPH
gust
MPH
rain 1hr
in
rain 24hr
in
rain mn
in
humidity
%
barometer
mb
20260906231659 71 80 3.0 8.0 0.00 0.00 0.00 71 1021.3
20260906231154 71 353 4.0 11.0 0.00 0.00 0.00 71 1021.3
20260906230653 71 39 2.0 11.0 0.00 0.00 0.00 70 1021.2
20260906230149 72 345 4.0 10.0 0.00 0.00 0.00 70 1021.3
20260906225647 72 358 3.0 6.0 0.00 0.00 0.00 72 1021.4
20260906225144 72 333 7.0 12.0 0.00 0.00 0.00 71 1021.6
20260906224638 72 339 3.0 7.0 0.00 0.00 0.00 71 1021.6
20260906224135 72 8 1.0 7.0 0.00 0.00 0.00 72 1021.7
20260906223631 73 334 0.0 9.0 0.00 0.00 0.00 71 1021.8
20260906223130 73 343 0.0 5.0 0.00 0.00 0.00 71 1021.9
20260906222629 73 355 3.0 8.0 0.00 0.00 0.00 70 1021.8
20260906222128 73 3 5.0 9.0 0.00 0.00 0.00 68 1021.9
20260906221627 75 5 7.0 10.0 0.00 0.00 0.00 67 1021.8
20260906221121 74 57 0.0 7.0 0.00 0.00 0.00 67 1021.8
20260906220616 74 350 9.0 15.0 0.00 0.00 0.00 66 1021.9
20260906220112 74 355 4.0 11.0 0.00 0.00 0.00 66 1021.8
20260906215611 74 15 2.0 12.0 0.00 0.00 0.00 68 1022.2
20260906215109 75 33 4.0 7.0 0.00 0.00 0.00 67 1022.0
20260906214608 75 34 3.0 8.0 0.00 0.00 0.00 67 1022.2
20260906214103 75 347 6.0 9.0 0.00 0.00 0.00 66 1022.2
20260906213603 74 0 5.0 9.0 0.00 0.00 0.00 68 1022.3
20260906213057 74 36 5.0 9.0 0.00 0.00 0.00 68 1022.3
20260906212550 75 302 0.0 5.0 0.00 0.00 0.00 69 1022.5
20260906212046 76 67 3.0 6.0 0.00 0.00 0.00 69 1022.2
20260906211545 75 345 5.0 9.0 0.00 0.00 0.00 68 1022.3
20260906211040 76 13 3.0 7.0 0.00 0.00 0.00 65 1022.3
20260906210536 75 14 2.0 5.0 0.00 0.00 0.00 68 1022.4
20260906210036 75 316 3.0 10.0 0.00 0.00 0.00 69 1022.2
20260906205531 75 69 2.0 9.0 0.00 0.00 0.00 68 1022.3
20260906205027 75 35 4.0 9.0 0.00 0.00 0.00 67 1022.4
20260906204526 75 336 4.0 11.0 0.00 0.00 0.00 68 1022.6
20260906204021 76 345 7.0 12.0 0.00 0.00 0.00 68 1022.3
20260906203515 76 359 4.0 8.0 0.00 0.00 0.00 68 1022.3
20260906203015 76 4 5.0 8.0 0.00 0.00 0.00 69 1022.2
20260906202506 76 33 5.0 10.0 0.00 0.00 0.00 69 1022.5
20260906202001 76 31 3.0 5.0 0.00 0.00 0.00 70 1022.5
20260906201456 76 1 3.0 9.0 0.00 0.00 0.00 71 1022.2
20260906200956 77 23 3.0 9.0 0.00 0.00 0.00 71 1022.3
20260906200453 77 341 3.0 9.0 0.00 0.00 0.00 71 1022.3
20260906195952 76 354 3.0 13.0 0.00 0.00 0.00 71 1022.3
20260906195448 77 170 0.0 7.0 0.00 0.00 0.00 70 1022.3
20260906194944 77 30 3.0 5.0 0.00 0.00 0.00 69 1022.5
20260906194440 76 317 5.0 9.0 0.00 0.00 0.00 70 1022.5
20260906193935 76 54 3.0 9.0 0.00 0.00 0.00 71 1022.6
20260906193430 77 326 6.0 12.0 0.00 0.00 0.00 69 1022.4
20260906192926 77 14 6.0 6.0 0.00 0.00 0.00 70 1022.3
20260906192420 76 343 3.0 8.0 0.00 0.00 0.00 72 1022.5
20260906191919 75 330 4.0 11.0 0.00 0.00 0.00 72 1022.6
20260906191415 76 357 2.0 7.0 0.00 0.00 0.00 70 1022.7
20260906190914 76 52 3.0 8.0 0.00 0.00 0.00 71 1022.6
20260906190413 76 40 4.0 8.0 0.00 0.00 0.00 71 1022.7
20260906185908 77 359 7.0 12.0 0.00 0.00 0.00 70 1022.9
20260906185407 77 52 5.0 7.0 0.00 0.00 0.00 69 1022.8
20260906184906 76 338 3.0 6.0 0.00 0.00 0.00 72 1022.9
20260906184401 76 43 3.0 9.0 0.00 0.00 0.00 71 1022.7
20260906183857 77 38 3.0 7.0 0.00 0.00 0.00 72 1022.7
20260906183353 77 71 3.0 7.0 0.00 0.00 0.00 73 1022.5
20260906182848 77 342 1.0 5.0 0.00 0.00 0.00 73 1022.7
20260906182343 77 355 4.0 7.0 0.00 0.00 0.00 71 1022.6
20260906181838 76 40 3.0 7.0 0.00 0.00 0.00 74 1022.8
20260906181334 76 319 4.0 11.0 0.00 0.00 0.00 71 1022.8
20260906180829 77 48 5.0 7.0 0.00 0.00 0.00 71 1022.5
20260906180324 77 74 3.0 7.0 0.00 0.00 0.00 71 1022.7
20260906175821 76 54 5.0 12.0 0.00 0.00 0.00 71 1022.6
20260906175317 76 120 1.0 4.0 0.00 0.00 0.00 72 1022.5
20260906174816 76 143 4.0 7.0 0.00 0.00 0.00 72 1022.8
20260906174315 76 10 5.0 13.0 0.00 0.00 0.00 72 1023.0
20260906173811 76 46 5.0 5.0 0.00 0.00 0.00 74 1022.6
20260906173306 76 129 2.0 6.0 0.00 0.00 0.00 74 1022.8
20260906172805 76 159 3.0 8.0 0.00 0.00 0.00 72 1022.8
20260906172305 75 84 3.0 12.0 0.00 0.00 0.00 78 1022.8
20260906171756 76 337 1.0 7.0 0.00 0.00 0.00 73 1022.8
20260906171251 76 14 6.0 7.0 0.00 0.00 0.00 74 1023.1
20260906170747 75 176 2.0 9.0 0.00 0.00 0.00 75 1023.1
20260906170243 75 33 4.0 10.0 0.00 0.00 0.00 76 1023.2
20260906165738 75 326 4.0 6.0 0.00 0.00 0.00 74 1023.2
20260906165238 75 334 3.0 6.0 0.00 0.00 0.00 76 1023.2
20260906164738 75 108 1.0 7.0 0.00 0.00 0.00 76 1023.1
20260906164233 75 239 1.0 6.0 0.00 0.00 0.00 78 1023.2
20260906163729 74 349 10.0 10.0 0.00 0.00 0.00 77 1023.3
20260906163225 74 57 0.0 6.0 0.00 0.00 0.00 79 1023.3
20260906162721 74 152 3.0 11.0 0.00 0.00 0.00 80 1022.9
20260906162216 75 141 1.0 7.0 0.00 0.00 0.00 81 1023.1
20260906161711 74 211 3.0 7.0 0.00 0.00 0.00 82 1023.0
20260906161210 74 15 5.0 7.0 0.00 0.00 0.00 82 1022.9
20260906160709 73 94 2.0 8.0 0.00 0.00 0.00 83 1022.8
20260906160209 74 60 1.0 10.0 0.00 0.00 0.00 82 1022.9
20260906155706 74 19 3.0 7.0 0.00 0.00 0.00 82 1022.8
20260906155202 74 50 4.0 9.0 0.00 0.00 0.00 83 1022.9
20260906154657 74 324 5.0 7.0 0.00 0.00 0.00 82 1022.7
20260906154156 74 34 10.0 10.0 0.00 0.00 0.00 81 1022.7
20260906153655 74 142 2.0 8.0 0.00 0.00 0.00 83 1022.6
20260906153150 74 188 1.0 8.0 0.00 0.00 0.00 84 1022.8
20260906152645 74 4 3.0 7.0 0.00 0.00 0.00 83 1022.5
20260906152139 74 357 6.0 10.0 0.00 0.00 0.00 81 1022.9
20260906151634 73 4 4.0 11.0 0.00 0.00 0.00 82 1022.8
20260906151130 73 42 4.0 6.0 0.00 0.00 0.00 83 1022.9
20260906150625 74 27 2.0 6.0 0.00 0.00 0.00 84 1022.9
20260906150120 74 351 2.0 6.0 0.00 0.00 0.00 86 1022.7
20260906145619 74 341 2.0 3.0 0.00 0.00 0.00 86 1022.7
20260906145114 73 37 3.0 9.0 0.00 0.00 0.00 86 1022.9
20260906144608 73 44 3.0 5.0 0.00 0.00 0.00 85 1022.7
20260906144103 73 153 4.0 8.0 0.00 0.00 0.00 85 1022.8
20260906143558 73 49 2.0 6.0 0.00 0.00 0.00 86 1022.7
20260906143055 73 86 2.0 7.0 0.00 0.00 0.00 86 1022.2
20260906142553 72 140 4.0 6.0 0.00 0.00 0.00 87 1022.6
20260906142049 73 19 2.0 4.0 0.00 0.00 0.00 87 1022.7
20260906141548 72 357 3.0 5.0 0.00 0.00 0.00 88 1022.5
20260906141044 72 117 0.0 5.0 0.00 0.00 0.00 89 1022.8
20260906140542 72 28 2.0 6.0 0.00 0.00 0.00 89 1023.0
20260906140037 72 29 3.0 9.0 0.00 0.00 0.00 89 1023.0
20260906135534 72 121 6.0 7.0 0.00 0.00 0.00 89 1022.9
20260906135030 71 136 3.0 5.0 0.00 0.00 0.00 90 1022.9
20260906134525 72 138 6.0 9.0 0.00 0.00 0.00 89 1022.6
20260906134020 73 114 2.0 5.0 0.00 0.00 0.00 88 1022.7
20260906133516 72 142 2.0 3.0 0.00 0.00 0.00 88 1022.4
20260906133011 73 94 2.0 4.0 0.00 0.00 0.00 90 1022.4
20260906132506 72 48 1.0 7.0 0.00 0.00 0.00 93 1022.3
20260906132002 70 164 1.0 7.0 0.00 0.00 0.00 99 1022.1
20260906131457 69 217 1.0 7.0 0.00 0.00 0.00 99 1022.3
20260906130952 69 32 3.0 6.0 0.00 0.00 0.00 99 1022.3
20260906130451 68 329 0.0 6.0 0.00 0.00 0.00 99 1022.5
20260906125946 68 32 1.0 4.0 0.00 0.00 0.00 99 1022.1
20260906125444 68 353 0.0 4.0 0.02 0.00 0.00 99 1022.1
20260906124943 68 140 0.0 3.0 0.02 0.00 0.00 99 1022.3
20260906124439 68 37 0.0 2.0 0.00 0.00 0.00 99 1022.4
20260906123939 68 337 0.0 2.0 0.00 0.00 0.00 99 1022.3
20260906123433 67 119 0.0 1.0 0.00 0.00 0.00 99 1022.1
20260906122933 67 89 0.0 2.0 0.00 0.00 0.00 99 1022.2
20260906122428 66 346 0.0 3.0 0.00 0.00 0.00 99 1021.9
20260906121925 65 217 0.0 2.0 0.00 0.00 0.00 99 1021.9
20260906121421 64 14 0.0 2.0 0.00 0.00 0.00 99 1022.0
20260906120917 63 202 0.0 1.0 0.00 0.00 0.00 99 1021.8
20260906120412 63 235 0.0 1.0 0.00 0.00 0.00 99 1021.6
20260906115908 63 37 0.0 1.0 0.00 0.00 0.00 99 1021.6
20260906115404 63 41 1.0 2.0 0.00 0.00 0.00 99 1021.4
20260906114902 63 352 0.0 1.0 0.00 0.00 0.00 99 1021.5
20260906114358 63 321 0.0 2.0 0.00 0.00 0.00 99 1021.5
20260906113854 63 59 0.0 1.0 0.00 0.00 0.00 99 1021.3
20260906113352 63 66 0.0 1.0 0.00 0.00 0.00 99 1021.2
20260906112848 63 41 0.0 2.0 0.00 0.00 0.00 99 1021.1
20260906112343 63 49 0.0 2.0 0.00 0.00 0.00 99 1021.1
20260906111838 63 31 0.0 2.0 0.00 0.00 0.00 99 1021.2
20260906111338 63 69 0.0 2.0 0.00 0.00 0.00 99 1021.4
20260906110833 63 48 0.0 2.0 0.00 0.00 0.00 99 1021.3
20260906110329 63 44 0.0 2.0 0.00 0.00 0.00 99 1021.2
20260906105827 63 319 0.0 1.0 0.00 0.00 0.00 99 1021.1
20260906105323 63 0 0.0 3.0 0.00 0.00 0.00 99 1021.1
20260906104819 63 32 0.0 2.0 0.00 0.00 0.00 99 1021.1
20260906104318 63 126 0.0 3.0 0.00 0.00 0.00 99 1021.0
20260906103816 63 49 0.0 1.0 0.00 0.00 0.00 99 1021.2
20260906103315 63 358 1.0 2.0 0.00 0.00 0.00 99 1020.7
20260906102811 63 74 0.0 2.0 0.00 0.00 0.00 99 1020.8
20260906102310 63 326 0.0 3.0 0.00 0.00 0.00 99 1021.2
20260906101805 63 50 0.0 1.0 0.00 0.00 0.00 99 1021.0
20260906101300 63 262 0.0 2.0 0.00 0.00 0.00 99 1021.0
20260906100756 63 269 0.0 2.0 0.00 0.00 0.00 99 1020.7
20260906100255 64 57 0.0 2.0 0.00 0.00 0.00 99 1020.6
20260906095750 64 342 1.0 2.0 0.00 0.00 0.00 99 1020.5
20260906095245 64 333 0.0 3.0 0.00 0.00 0.00 99 1020.5
20260906094744 64 22 0.0 4.0 0.00 0.00 0.00 99 1020.4
20260906094240 64 32 0.0 3.0 0.00 0.00 0.00 99 1020.5
20260906093736 64 3 1.0 3.0 0.00 0.00 0.00 99 1020.6
20260906093231 64 89 0.0 3.0 0.00 0.00 0.00 99 1020.5
20260906092726 64 354 0.0 3.0 0.00 0.00 0.00 99 1020.8
20260906092220 64 256 0.0 3.0 0.00 0.00 0.00 99 1020.5
20260906091717 64 47 2.0 3.0 0.00 0.00 0.00 99 1020.3
20260906091213 64 36 0.0 3.0 0.00 0.00 0.00 99 1020.6
20260906090709 64 37 0.0 2.0 0.00 0.00 0.00 99 1020.4
20260906090208 64 105 0.0 4.0 0.00 0.00 0.00 99 1020.6
20260906085707 64 35 2.0 3.0 0.00 0.00 0.00 99 1020.7
20260906085206 64 54 0.0 3.0 0.00 0.00 0.00 99 1020.3
20260906084701 64 11 2.0 3.0 0.00 0.00 0.00 99 1020.5
20260906084155 64 359 2.0 3.0 0.00 0.00 0.00 99 1020.7
20260906083650 64 50 0.0 2.0 0.00 0.00 0.00 99 1020.4
20260906083145 64 131 0.0 2.0 0.00 0.00 0.00 99 1020.6
20260906082640 64 32 0.0 2.0 0.00 0.00 0.00 99 1020.5
20260906082136 64 40 1.0 2.0 0.00 0.00 0.00 99 1020.5
20260906081632 64 38 0.0 2.0 0.00 0.00 0.00 99 1020.6
20260906081126 64 359 1.0 3.0 0.00 0.00 0.00 99 1020.4
20260906080623 64 4 0.0 2.0 0.00 0.00 0.00 99 1020.2
20260906080119 63 52 0.0 2.0 0.00 0.00 0.00 99 1020.1
20260906075612 63 313 0.0 2.0 0.00 0.00 0.00 99 1020.3
20260906075107 63 49 0.0 1.0 0.00 0.00 0.00 99 1020.3
20260906074603 64 129 0.0 0.0 0.00 0.00 0.00 99 1020.4
20260906074101 64 76 0.0 0.0 0.00 0.00 0.00 99 1020.2
20260906073557 63 76 0.0 1.0 0.00 0.00 0.00 99 1020.4
20260906073052 64 107 0.0 1.0 0.00 0.00 0.00 99 1020.4
20260906072547 64 130 0.0 1.0 0.00 0.00 0.00 99 1020.4
20260906072043 64 230 0.0 1.0 0.00 0.00 0.00 99 1020.5
20260906071539 64 89 0.0 0.0 0.00 0.00 0.00 99 1020.4
20260906071034 64 114 0.0 1.0 0.00 0.00 0.00 99 1020.3
20260906070530 64 99 0.0 2.0 0.00 0.00 0.00 99 1020.2
20260906070026 64 134 0.0 2.0 0.00 0.00 0.00 99 1020.5
20260906065525 64 89 0.0 1.0 0.00 0.00 0.00 99 1020.5
20260906065021 64 142 0.0 0.0 0.00 0.00 0.00 99 1020.3
20260906064516 65 130 0.0 2.0 0.00 0.00 0.00 99 1020.3
20260906064011 65 245 0.0 2.0 0.00 0.00 0.00 99 1020.6
20260906063507 65 235 0.0 1.0 0.00 0.00 0.00 99 1020.4
20260906063002 65 250 0.0 2.0 0.00 0.00 0.00 99 1020.4
20260906062457 65 269 0.0 1.0 0.00 0.00 0.00 99 1020.2
20260906061951 65 23 0.0 2.0 0.00 0.00 0.00 99 1020.6
20260906061447 65 124 0.0 1.0 0.00 0.00 0.00 99 1020.3
20260906060942 65 269 0.0 4.0 0.00 0.00 0.00 99 1020.3
20260906060439 65 358 0.0 3.0 0.00 0.00 0.00 99 1020.6
20260906055935 66 8 0.0 3.0 0.00 0.00 0.00 99 1020.4
20260906055431 66 339 1.0 3.0 0.00 0.00 0.00 99 1020.4
20260906054926 66 27 2.0 3.0 0.00 0.00 0.00 99 1020.6
20260906054421 66 19 0.0 2.0 0.00 0.00 0.00 99 1020.5
20260906053917 66 11 2.0 3.0 0.00 0.00 0.00 99 1020.4
20260906053412 66 37 0.0 4.0 0.00 0.00 0.00 99 1020.2
20260906052908 66 233 0.0 3.0 0.00 0.00 0.00 99 1020.4
20260906052404 66 266 0.0 3.0 0.00 0.00 0.00 99 1020.3
20260906051901 66 35 0.0 2.0 0.00 0.00 0.00 99 1020.2
20260906051401 66 359 2.0 4.0 0.00 0.00 0.00 99 1020.2
20260906050856 66 3 0.0 2.0 0.00 0.00 0.00 99 1020.1
20260906050350 66 269 0.0 2.0 0.00 0.00 0.00 99 1020.0
20260906045849 66 0 3.0 4.0 0.00 0.00 0.00 99 1020.0
20260906045344 67 346 1.0 3.0 0.00 0.00 0.00 99 1020.1
20260906044840 67 352 0.0 4.0 0.00 0.00 0.00 99 1019.9
20260906044340 67 352 1.0 3.0 0.00 0.00 0.00 99 1020.1
20260906043836 67 249 0.0 3.0 0.00 0.00 0.00 99 1019.7
20260906043332 67 343 3.0 4.0 0.00 0.00 0.00 99 1020.0
20260906042827 67 356 2.0 3.0 0.00 0.00 0.00 99 1019.8
20260906042325 67 352 3.0 4.0 0.00 0.00 0.00 99 1019.8
20260906041821 67 339 3.0 5.0 0.00 0.00 0.00 99 1019.6
20260906041317 67 329 2.0 5.0 0.00 0.00 0.00 99 1019.6
20260906040811 67 0 2.0 4.0 0.00 0.00 0.00 99 1019.7
20260906040307 67 343 0.0 5.0 0.00 0.00 0.00 99 1019.8
20260906035802 67 16 4.0 5.0 0.00 0.00 0.00 99 1019.6
20260906035258 67 358 2.0 3.0 0.00 0.00 0.00 99 1019.8
20260906034757 67 4 0.0 4.0 0.00 0.00 0.00 99 1019.5
20260906034252 67 9 2.0 6.0 0.00 0.00 0.00 99 1019.5
20260906033748 67 316 2.0 3.0 0.00 0.00 0.00 99 1019.7
20260906033247 67 309 0.0 3.0 0.00 0.00 0.00 99 1019.4
20260906032744 67 352 2.0 7.0 0.00 0.00 0.00 99 1019.5
20260906032243 68 13 1.0 5.0 0.00 0.00 0.00 99 1019.3
20260906031739 68 354 2.0 7.0 0.00 0.00 0.00 99 1019.7
20260906031235 68 3 4.0 5.0 0.00 0.00 0.00 99 1019.6
20260906030729 68 350 2.0 5.0 0.00 0.00 0.00 99 1019.4
20260906030224 68 356 3.0 7.0 0.00 0.00 0.00 99 1019.4
20260906025723 68 6 2.0 6.0 0.00 0.00 0.00 99 1019.2
20260906025218 68 9 3.0 6.0 0.00 0.00 0.00 99 1019.5
20260906024717 68 266 0.0 4.0 0.00 0.00 0.00 99 1019.8
20260906024216 68 7 3.0 5.0 0.00 0.00 0.00 99 1019.5
20260906023712 68 8 4.0 8.0 0.00 0.00 0.00 99 1019.4
20260906023207 68 352 2.0 9.0 0.00 0.00 0.00 99 1019.3
20260906022702 68 30 8.0 8.0 0.00 0.00 0.00 99 1019.4
20260906022158 68 39 0.0 6.0 0.00 0.00 0.00 99 1019.2
20260906021654 68 24 4.0 6.0 0.00 0.00 0.00 99 1019.4
20260906021152 68 75 2.0 7.0 0.00 0.00 0.00 99 1019.5
20260906020647 69 329 1.0 11.0 0.00 0.00 0.00 98 1019.4
20260906020142 69 358 3.0 4.0 0.00 0.00 0.00 98 1019.7
20260906015636 69 344 4.0 7.0 0.00 0.00 0.00 98 1019.3
20260906015134 69 335 5.0 9.0 0.00 0.00 0.00 97 1019.3
20260906014629 69 346 5.0 11.0 0.00 0.00 0.00 97 1019.4
20260906014125 69 353 1.0 7.0 0.00 0.00 0.00 97 1019.4
20260906013620 70 359 2.0 8.0 0.00 0.00 0.00 97 1019.4
20260906013116 70 356 3.0 12.0 0.00 0.00 0.00 97 1019.5
20260906012611 70 349 2.0 11.0 0.00 0.00 0.00 97 1019.5
20260906012110 70 355 3.0 7.0 0.00 0.00 0.00 97 1019.5
20260906011607 70 5 2.0 4.0 0.00 0.00 0.00 97 1019.3
20260906011101 70 37 5.0 11.0 0.00 0.00 0.00 97 1019.2
20260906010556 70 356 3.0 9.0 0.00 0.00 0.00 97 1019.3
20260906010053 70 347 5.0 7.0 0.00 0.00 0.00 97 1019.6
20260906005551 70 317 2.0 7.0 0.00 0.00 0.00 98 1019.2
20260906005051 70 84 1.0 7.0 0.00 0.00 0.00 98 1019.1
20260906004550 70 338 3.0 9.0 0.00 0.00 0.00 98 1019.1
20260906004045 70 7 3.0 11.0 0.00 0.00 0.00 98 1019.0
20260906003540 70 352 3.0 9.0 0.00 0.00 0.00 97 1018.8
20260906003036 70 2 2.0 7.0 0.00 0.00 0.00 98 1019.1
20260906002531 70 359 2.0 6.0 0.00 0.00 0.00 98 1019.1
20260906002026 70 343 4.0 12.0 0.00 0.00 0.00 98 1019.0
20260906001521 70 4 5.0 9.0 0.00 0.00 0.00 98 1019.0
20260906001015 70 336 6.0 18.0 0.00 0.00 0.00 98 1019.1
20260906000512 70 351 5.0 8.0 0.00 0.00 0.00 98 1019.1
20260906000006 70 347 6.0 17.0 0.00 0.00 0.00 97 1018.9
20260905235500 70 8 4.0 11.0 0.00 0.00 0.00 97 1018.9
20260905234955 70 358 4.0 12.0 0.00 0.00 0.00 97 1019.0
20260905234450 71 351 7.0 13.0 0.00 0.00 0.00 96 1019.0
20260905233944 71 348 3.0 15.0 0.00 0.00 0.00 96 1019.1
20260905233440 71 11 5.0 12.0 0.00 0.00 0.00 96 1019.1
20260905232938 71 329 2.0 7.0 0.00 0.00 0.00 96 1019.2
20260905232435 71 10 9.0 11.0 0.00 0.00 0.00 95 1018.9
20260905231930 71 342 15.0 17.0 0.00 0.00 0.00 95 1018.9